Regional Weather Roundup
Issued by NWS

Home | Current Version | Previous Version | Text Only | Print | Product List | Glossary On
Versions: 1 2 3 4 5 6 7 8 9 10 11 12 13 14 15 16 17 18 19 20 21 22 23 24 25 26 27 28 29 30 31 32 33 34 35 36 37 38 39 40 41 42 43 44 45 46 47 48 49 50
000
ASUS43 KLSX 282110
RWRMO

WEATHER SUMMARY FOR MISSOURI
NATIONAL WEATHER SERVICE SPRINGFIELD MO
400 PM CDT WED JUN 28 2017

NOTE: "FAIR" INDICATES FEW OR NO CLOUDS BELOW 12,000 FEET WITH NO
       SIGNIFICANT WEATHER AND/OR OBSTRUCTIONS TO VISIBILITY.
       CURRENT SKY AND/OR WEATHER CONDITIONS ARE NOT AVAILABLE FOR
       CHILLICOTHE AND FARMINGTON.

MOZ001>031-035>038-043-044-053-054-282200-
...NORTHERN AND WESTERN MISSOURI...

CITY           SKY/WX    TMP DP  RH WIND       PRES   REMARKS
KANSAS CTY INT MOSUNNY   88  72  58 SW17G28   29.77S HX  94
KANSAS C DTWN  MOSUNNY   90  70  51 SW22G32   29.77S HX  95
LEE`S SUMMIT   MOSUNNY   87  71  58 S23G33    29.80S HX  93
ST JOSEPH      PTSUNNY   87  73  62 S16G32    29.73S HX  94
CHILLICOTHE      N/A     87  71  58 S17G25    29.78S HX  93
KIRKSVILLE     PTSUNNY   87  69  54 S21G29    29.81S HX  91

$$
MOZ066>068-077>081-088>096-101>105-282200-
...SOUTHWEST MISSOURI...

CITY           SKY/WX    TMP DP  RH WIND       PRES   REMARKS
SPRINGFIELD    SUNNY     85  67  54 S20G30    29.90F
JOPLIN         MOSUNNY   88  71  57 S18G29    29.87S HX  94
BRANSON        PTSUNNY   84  66  54 SE10G18   29.95F

$$
MOZ032>034-039>042-045>050-055>058-069>072-282200-
...CENTRAL MISSOURI...

CITY           SKY/WX    TMP DP  RH WIND       PRES   REMARKS
COLUMBIA       SUNNY     87  67  51 S20G30    29.85F HX  90
JEFFERSON CITY SUNNY     89  66  46 S14G22    29.84F HX  91
ROLLA          SUNNY     86  64  47 S22G30    29.90F
SEDALIA        MOSUNNY   87  73  62 S17G23    29.85F HX  94
WHITEMAN AFB   MOSUNNY   86  73  64 S20G25    29.82F HX  94
WARRENSBURG    PTSUNNY   84  68  58 S18G26    29.82S
OSAGE BEACH    SUNNY     86  68  54 S17G24    29.88F

$$
MOZ051-052-059>065-282200-
...EAST CENTRAL MISSOURI...

CITY           SKY/WX    TMP DP  RH WIND       PRES   REMARKS
ST LOUIS INTL  PTSUNNY   89  62  40 S18G26    29.89F
SPIRIT OF STL  MOSUNNY   87  64  46 S16G26    29.86F
ST CHARLES     SUNNY     88  64  44 S16       29.86F

$$
MOZ072>076-082>087-097>100-106>115-282200-
...SOUTH CENTRAL AND SOUTHEAST MISSOURI...

CITY           SKY/WX    TMP DP  RH WIND       PRES   REMARKS
CAPE GIRARDEAU CLOUDY    84  63  49 SW14G23   29.97F
FARMINGTON     MOSUNNY   85  66  53 S17       29.96F
POPLAR BLUFF   CLOUDY    84  68  58 S10       29.97F
WEST PLAINS    SUNNY     85  62  46 S12       29.98F

$$



USA.gov is the U.S. government's official web portal to all federal, state and local government web resources and services.